This is the latest recevied weather packets stored in our database for station/object EA5JMY-10. If no packets are shown the sender has not sent any weather packets the latest 10 day(s).
| Time | Temp. | Humidity | Pressure | Rain* | Wind** | Luminosity | Snow |
|---|---|---|---|---|---|---|---|
| 1777709166 | 20° C | 73% | 1023.5 hPa | - | - | - | - |
| 1777708266 | 20° C | 69% | 1023.4 hPa | - | - | - | - |
| 1777707365 | 20° C | 69% | 1023.4 hPa | - | - | - | - |
| 1777706465 | 20.56° C | 68% | 1023.2 hPa | - | - | - | - |
| 1777705565 | 20.56° C | 70% | 1023.2 hPa | - | - | - | - |
| 1777704665 | 20° C | 69% | 1023.2 hPa | - | - | - | - |
| 1777703765 | 20° C | 69% | 1023.4 hPa | - | - | - | - |
| 1777702865 | 19.44° C | 70% | 1023.4 hPa | - | - | - | - |
| 1777701965 | 20° C | 68% | 1023.4 hPa | - | - | - | - |
| 1777701064 | 20° C | 68% | 1023.2 hPa | - | - | - | - |
| 1777700164 | 20° C | 68% | 1023.2 hPa | - | - | - | - |
| 1777699264 | 19.44° C | 71% | 1023 hPa | - | - | - | - |
| 1777698364 | 18.89° C | 72% | 1022.9 hPa | - | - | - | - |
| 1777697464 | 18.89° C | 71% | 1023 hPa | - | - | - | - |
| 1777696564 | 19.44° C | 71% | 1023.1 hPa | - | - | - | - |
| 1777695664 | 19.44° C | 71% | 1023.2 hPa | - | - | - | - |
| 1777694764 | 19.44° C | 70% | 1023.3 hPa | - | - | - | - |
| 1777693864 | 19.44° C | 70% | 1023.4 hPa | - | - | - | - |
| 1777692963 | 19.44° C | 71% | 1023.3 hPa | - | - | - | - |
| 1777692063 | 18.89° C | 71% | 1023.4 hPa | - | - | - | - |
| 1777691163 | 18.89° C | 72% | 1023.3 hPa | - | - | - | - |
| 1777690263 | 18.89° C | 72% | 1023.4 hPa | - | - | - | - |
| 1777689363 | 18.89° C | 72% | 1023.3 hPa | - | - | - | - |
| 1777688463 | 18.89° C | 73% | 1023.4 hPa | - | - | - | - |
| 1777687563 | 18.89° C | 73% | 1023.5 hPa | - | - | - | - |
* Rain since midnight (hover to see other rain measurements)
** Current wind speed in m/s (hover to see current wind gust speed)